NOZ1972 ENGM-ENVA

Flight info

Callsign NOZ1972
Flight time 0h 43m
Altitude 30000
Route RIBBE DCT GIGNI DCT VEVOD
Aircraft B738/M-SDE2E3FGHIRWXY/LB1

Departure

Time 2026-05-04 14:22
Airport Oslo-Gardermoen International Airport (ENGM)

Arrival

Time 2026-05-04 15:06
Airport Trondheim Airport, Værnes (ENVA)
Time Latitude Longitude Altitude Speed Heading
2026-05-04 14:04 60.19399 11.08829 679 ft 0 kts 196°
2026-05-04 14:04 60.19396 11.08828 679 ft 0 kts 196°
2026-05-04 14:10 60.19396 11.08829 679 ft 0 kts 196°
2026-05-04 14:14 60.19409 11.08835 680 ft 4 kts 189°
2026-05-04 14:15 60.19440 11.08891 682 ft 4 kts 267°
2026-05-04 14:15 60.19436 11.08943 679 ft 1 kts 286°
2026-05-04 14:18 60.19439 11.08934 681 ft 3 kts 298°
2026-05-04 14:18 60.19508 11.08724 676 ft 14 kts 286°
2026-05-04 14:19 60.19413 11.08465 675 ft 14 kts 196°
2026-05-04 14:19 60.19322 11.08412 674 ft 14 kts 196°
2026-05-04 14:19 60.19220 11.08352 672 ft 17 kts 195°
2026-05-04 14:19 60.19097 11.08282 670 ft 20 kts 196°
2026-05-04 14:20 60.18960 11.08202 672 ft 20 kts 196°
2026-05-04 14:20 60.18822 11.08123 671 ft 22 kts 196°
2026-05-04 14:20 60.18666 11.08034 670 ft 23 kts 195°
2026-05-04 14:21 60.18559 11.07727 664 ft 15 kts 287°
2026-05-04 14:21 60.18590 11.07532 663 ft 15 kts 293°
2026-05-04 14:21 60.18671 11.07472 666 ft 10 kts 15°
2026-05-04 14:21 60.18681 11.07478 666 ft 0 kts 16°
2026-05-04 14:22 60.18717 11.07499 666 ft 30 kts 16°
2026-05-04 14:22 60.19228 11.07789 670 ft 120 kts 15°
2026-05-04 14:22 60.20282 11.08317 830 ft 179 kts
2026-05-04 14:22 60.21478 11.09026 2037 ft 177 kts 10°
2026-05-04 14:23 60.23793 11.10389 4347 ft 179 kts
2026-05-04 14:23 60.25101 11.11109 4897 ft 209 kts
2026-05-04 14:23 60.26603 11.11240 5170 ft 229 kts 345°
2026-05-04 14:24 60.28223 11.10721 5616 ft 245 kts 346°
2026-05-04 14:24 60.29985 11.10180 5994 ft 263 kts 346°
2026-05-04 14:24 60.31824 11.09618 6783 ft 269 kts 346°
2026-05-04 14:24 60.33685 11.09062 7670 ft 272 kts 349°
2026-05-04 14:25 60.35604 11.09491 8510 ft 287 kts 15°
2026-05-04 14:25 60.39362 11.12678 10111 ft 302 kts 18°
2026-05-04 14:25 60.41374 11.14455 10312 ft 328 kts 19°
2026-05-04 14:26 60.43504 11.16335 10653 ft 346 kts 19°
2026-05-04 14:26 60.45733 11.18308 11330 ft 352 kts 19°
2026-05-04 14:26 60.47985 11.20300 12135 ft 355 kts 19°
2026-05-04 14:26 60.50260 11.22304 12925 ft 359 kts 18°
2026-05-04 14:27 60.52574 11.24338 13679 ft 364 kts 18°
2026-05-04 14:27 60.54923 11.26401 14366 ft 370 kts 17°
2026-05-04 14:27 60.57311 11.28500 15030 ft 375 kts 16°
2026-05-04 14:27 60.59721 11.30621 15732 ft 380 kts 15°
2026-05-04 14:28 60.62164 11.32774 16433 ft 384 kts 15°
2026-05-04 14:28 60.64641 11.34954 17133 ft 389 kts 14°
2026-05-04 14:28 60.67133 11.37163 17824 ft 394 kts 14°
2026-05-04 14:28 60.69661 11.39410 18458 ft 397 kts 14°
2026-05-04 14:29 60.74768 11.43835 19481 ft 402 kts
2026-05-04 14:29 60.80139 11.44981 20618 ft 388 kts 351°
2026-05-04 14:30 60.82859 11.45228 21155 ft 393 kts 351°
2026-05-04 14:30 60.85617 11.45503 21682 ft 398 kts 351°
2026-05-04 14:30 60.91179 11.46143 22726 ft 407 kts 351°
2026-05-04 14:31 60.94034 11.46495 23222 ft 412 kts 351°
2026-05-04 14:31 60.99799 11.47224 24108 ft 417 kts 351°
2026-05-04 14:32 61.05612 11.47957 24990 ft 421 kts 351°
2026-05-04 14:32 61.08540 11.48293 25402 ft 421 kts 350°
2026-05-04 14:32 61.11474 11.48396 25782 ft 422 kts 348°
2026-05-04 14:32 61.14415 11.48366 26194 ft 422 kts 348°
2026-05-04 14:33 61.17352 11.48309 26620 ft 424 kts 348°
2026-05-04 14:33 61.20308 11.48268 27122 ft 424 kts 348°
2026-05-04 14:33 61.23224 11.48256 27679 ft 423 kts 348°
2026-05-04 14:33 61.26171 11.48260 28226 ft 421 kts 348°
2026-05-04 14:34 61.29104 11.48269 28720 ft 422 kts 348°
2026-05-04 14:34 61.32050 11.48279 29220 ft 422 kts 348°
2026-05-04 14:34 61.34994 11.48290 29672 ft 423 kts 349°
2026-05-04 14:35 61.40931 11.48295 29685 ft 436 kts 349°
2026-05-04 14:35 61.47096 11.48296 29694 ft 450 kts 349°
2026-05-04 14:36 61.53467 11.48313 29685 ft 463 kts 350°
2026-05-04 14:36 61.60002 11.48339 29680 ft 475 kts 351°
2026-05-04 14:37 61.66685 11.48371 29684 ft 484 kts 351°
2026-05-04 14:37 61.73463 11.48401 29679 ft 489 kts 351°
2026-05-04 14:38 61.80257 11.48429 29683 ft 492 kts 351°
2026-05-04 14:38 61.87061 11.48466 29662 ft 477 kts 351°
2026-05-04 14:38 61.90324 11.48495 29679 ft 459 kts 351°
2026-05-04 14:39 61.93466 11.48510 29666 ft 443 kts 351°
2026-05-04 14:39 61.96496 11.48521 29644 ft 425 kts 350°
2026-05-04 14:39 61.99359 11.48536 29530 ft 410 kts 349°
2026-05-04 14:40 62.04904 11.47626 28747 ft 392 kts 343°
2026-05-04 14:40 62.07606 11.46952 28390 ft 387 kts 343°
2026-05-04 14:40 62.10270 11.46270 27981 ft 384 kts 343°
2026-05-04 14:40 62.12921 11.45600 27588 ft 382 kts 343°
2026-05-04 14:41 62.15560 11.44949 27202 ft 380 kts 343°
2026-05-04 14:41 62.18172 11.44318 26823 ft 377 kts 343°
2026-05-04 14:41 62.23361 11.43089 26075 ft 373 kts 344°
2026-05-04 14:42 62.28492 11.41882 25313 ft 369 kts 344°
2026-05-04 14:42 62.31044 11.41280 24935 ft 367 kts 344°
2026-05-04 14:42 62.33553 11.40688 24573 ft 365 kts 344°
2026-05-04 14:43 62.36069 11.40094 24192 ft 363 kts 344°
2026-05-04 14:43 62.38577 11.39502 23829 ft 361 kts 344°
2026-05-04 14:43 62.41071 11.38911 23457 ft 359 kts 344°
2026-05-04 14:43 62.43556 11.38321 23049 ft 357 kts 345°
2026-05-04 14:44 62.46015 11.37737 22624 ft 355 kts 345°
2026-05-04 14:44 62.48467 11.37154 22232 ft 352 kts 345°
2026-05-04 14:44 62.50889 11.36578 21873 ft 349 kts 345°
2026-05-04 14:44 62.53263 11.36013 21530 ft 345 kts 345°
2026-05-04 14:45 62.55645 11.35443 21159 ft 343 kts 345°
2026-05-04 14:45 62.58003 11.34878 20823 ft 339 kts 345°
2026-05-04 14:45 62.60341 11.34316 20461 ft 337 kts 346°
2026-05-04 14:45 62.62668 11.33756 20106 ft 334 kts 346°
2026-05-04 14:46 62.64968 11.33202 19768 ft 331 kts 346°
2026-05-04 14:46 62.67256 11.32650 19430 ft 329 kts 346°
2026-05-04 14:46 62.69521 11.32102 19103 ft 327 kts 346°
2026-05-04 14:46 62.71773 11.31556 18766 ft 325 kts 346°
2026-05-04 14:47 62.74006 11.31015 18445 ft 322 kts 347°
2026-05-04 14:47 62.76208 11.30480 18126 ft 320 kts 347°
2026-05-04 14:47 62.78420 11.29942 17781 ft 318 kts 347°
2026-05-04 14:47 62.80621 11.29407 17419 ft 316 kts 347°
2026-05-04 14:48 62.82792 11.28881 17103 ft 313 kts 348°
2026-05-04 14:48 62.84958 11.28541 16846 ft 310 kts 351°
2026-05-04 14:48 62.87113 11.28397 16524 ft 308 kts 352°
2026-05-04 14:48 62.89254 11.28288 16222 ft 306 kts 353°
2026-05-04 14:49 62.91349 11.28170 15910 ft 304 kts 352°
2026-05-04 14:49 62.93460 11.28031 15592 ft 302 kts 352°
2026-05-04 14:49 62.95551 11.27882 15278 ft 300 kts 352°
2026-05-04 14:49 62.97631 11.27731 14963 ft 299 kts 352°
2026-05-04 14:50 62.99708 11.27580 14635 ft 298 kts 353°
2026-05-04 14:50 63.01781 11.27995 14344 ft 301 kts
2026-05-04 14:50 63.03831 11.28962 14029 ft 300 kts
2026-05-04 14:50 63.05868 11.29959 13712 ft 299 kts
2026-05-04 14:51 63.07892 11.30922 13383 ft 298 kts
2026-05-04 14:51 63.09921 11.31850 13027 ft 297 kts
2026-05-04 14:51 63.11914 11.32746 12793 ft 291 kts
2026-05-04 14:51 63.13851 11.33613 12664 ft 283 kts
2026-05-04 14:52 63.15750 11.34581 12518 ft 279 kts 12°
2026-05-04 14:52 63.17549 11.36058 12427 ft 272 kts 15°
2026-05-04 14:52 63.19269 11.37599 12301 ft 264 kts 15°
2026-05-04 14:52 63.20914 11.39320 12160 ft 262 kts 32°
2026-05-04 14:53 63.22081 11.42403 12053 ft 266 kts 62°
2026-05-04 14:53 63.22465 11.46450 11787 ft 273 kts 93°
2026-05-04 14:53 63.22233 11.50684 11586 ft 280 kts 100°
2026-05-04 14:53 63.21919 11.54983 11278 ft 288 kts 98°
2026-05-04 14:54 63.22041 11.59381 10969 ft 287 kts 72°
2026-05-04 14:54 63.22617 11.63590 10715 ft 284 kts 70°
2026-05-04 14:54 63.23186 11.67783 10450 ft 284 kts 71°
2026-05-04 14:54 63.23827 11.71916 10153 ft 281 kts 57°
2026-05-04 14:55 63.24579 11.74214 9975 ft 275 kts 43°
2026-05-04 14:55 63.26258 11.78396 9639 ft 273 kts 43°
2026-05-04 14:55 63.27105 11.80534 9477 ft 272 kts 44°
2026-05-04 14:55 63.28867 11.84384 9114 ft 261 kts 22°
2026-05-04 14:56 63.30477 11.86070 8911 ft 253 kts 16°
2026-05-04 14:56 63.31551 11.87048 8749 ft 248 kts
2026-05-04 14:56 63.33175 11.87186 8554 ft 224 kts 337°
2026-05-04 14:56 63.34516 11.85720 8332 ft 211 kts 314°
2026-05-04 14:57 63.35465 11.83320 8101 ft 203 kts 296°
2026-05-04 14:57 63.35966 11.80437 7884 ft 196 kts 281°
2026-05-04 14:57 63.36250 11.77449 7672 ft 200 kts 279°
2026-05-04 14:57 63.36517 11.74417 7442 ft 199 kts 279°
2026-05-04 14:58 63.36785 11.71396 7220 ft 198 kts 279°
2026-05-04 14:58 63.37049 11.68425 6976 ft 196 kts 279°
2026-05-04 14:58 63.37320 11.65420 6728 ft 200 kts 279°
2026-05-04 14:58 63.37596 11.62349 6523 ft 201 kts 280°
2026-05-04 14:59 63.37864 11.59338 6574 ft 199 kts 279°
2026-05-04 14:59 63.38228 11.56342 6421 ft 205 kts 295°
2026-05-04 14:59 63.40499 11.52402 6167 ft 219 kts 332°
2026-05-04 15:00 63.41951 11.51266 5967 ft 222 kts 334°
2026-05-04 15:00 63.43414 11.50155 5769 ft 222 kts 332°
2026-05-04 15:00 63.44607 11.48277 5614 ft 203 kts 297°
2026-05-04 15:01 63.45355 11.42424 5103 ft 198 kts 278°
2026-05-04 15:01 63.45558 11.39357 4788 ft 199 kts 276°
2026-05-04 15:01 63.45702 11.36270 4484 ft 200 kts 272°
2026-05-04 15:01 63.45748 11.33172 4173 ft 198 kts 270°
2026-05-04 15:02 63.45753 11.30112 3854 ft 193 kts 269°
2026-05-04 15:02 63.45748 11.27117 3515 ft 190 kts 269°
2026-05-04 15:02 63.45746 11.24238 3241 ft 181 kts 269°
2026-05-04 15:02 63.45745 11.21465 2950 ft 177 kts 269°
2026-05-04 15:03 63.45743 11.18752 2654 ft 177 kts 269°
2026-05-04 15:03 63.45741 11.16104 2419 ft 162 kts 269°
2026-05-04 15:03 63.45742 11.13668 2177 ft 150 kts 269°
2026-05-04 15:03 63.45742 11.11397 1904 ft 141 kts 269°
2026-05-04 15:04 63.45743 11.09253 1687 ft 139 kts 269°
2026-05-04 15:04 63.45743 11.07090 1444 ft 139 kts 270°
2026-05-04 15:04 63.45744 11.04952 1204 ft 134 kts 270°
2026-05-04 15:04 63.45745 11.02895 986 ft 131 kts 272°
2026-05-04 15:05 63.45748 11.00879 779 ft 128 kts 272°
2026-05-04 15:05 63.45749 10.98926 579 ft 124 kts 272°
2026-05-04 15:05 63.45753 10.97024 400 ft 122 kts 272°
2026-05-04 15:05 63.45757 10.95136 203 ft 125 kts 271°
2026-05-04 15:06 63.45766 10.93200 52 ft 120 kts 271°
2026-05-04 15:06 63.45771 10.91855 39 ft 35 kts 268°
2026-05-04 15:06 63.45760 10.91561 36 ft 14 kts 244°
2026-05-04 15:07 63.45612 10.91537 36 ft 14 kts 138°
2026-05-04 15:07 63.45595 10.91733 38 ft 13 kts 90°
2026-05-04 15:07 63.45594 10.91923 41 ft 9 kts 91°
2026-05-04 15:07 63.45579 10.91995 41 ft 4 kts 155°
2026-05-04 15:08 63.45547 10.91999 41 ft 6 kts 180°
2026-05-04 15:08 63.45511 10.91998 42 ft 4 kts 180°
2026-05-04 15:08 63.45501 10.91998 42 ft 0 kts 180°